Location: Albany
(35.0000°S, 118.0000°E)
Time: 20:42:16
(UTC-05:00)

Transit 2A - Visible Passes

Search period start: 12 December 2017 00:00
Search period end: 22 December 2017 00:00
Orbit: 591 x 968 km, 66.7° (Epoch: 11 December)

Date Brightness Start Highest point End Pass type
(mag) Time Alt. Az. Time Alt. Az. Time Alt. Az.
12 Dec 5.8 13:11:39 60° NE 13:11:56 62° ENE 13:16:22 10° SE visible
12 Dec 7.9 14:53:16 10° WSW 14:55:22 13° SW 14:57:26 10° SSW visible
13 Dec 6.8 12:38:35 36° E 12:38:35 36° E 12:42:07 10° SE visible
13 Dec 7.4 14:19:04 15° W 14:21:08 19° SW 14:24:23 10° S visible
14 Dec 7.7 12:05:28 20° E 12:05:28 20° E 12:07:38 10° ESE visible
14 Dec 6.8 13:45:57 26° W 13:46:59 29° WSW 13:50:52 10° S visible
15 Dec 8.3 11:32:19 11° ESE 11:32:19 11° ESE 11:32:38 10° ESE visible
15 Dec 6.2 13:12:48 45° WSW 13:12:53 45° WSW 13:17:09 10° SSE visible
16 Dec 6.1 12:39:36 58° S 12:39:36 58° S 12:43:16 10° SSE visible
17 Dec 6.8 12:06:22 39° SE 12:06:22 39° SE 12:09:14 10° SSE visible
17 Dec 8.0 13:46:51 10° WSW 13:48:18 11° SW 13:49:49 10° SSW visible
18 Dec 7.6 11:33:06 24° SE 11:33:06 24° SE 11:35:02 10° SE visible
18 Dec 7.6 13:13:34 17° WSW 13:14:03 17° SW 13:17:02 10° S visible
19 Dec 8.1 10:59:47 14° ESE 10:59:47 14° ESE 11:00:35 10° SE visible
19 Dec 7.2 12:40:15 26° SW 12:40:15 26° SW 12:43:37 10° S visible
20 Dec 7.0 12:06:54 34° SSW 12:06:54 34° SSW 12:09:56 10° S visible
21 Dec 7.1 11:33:30 34° S 11:33:30 34° S 11:36:05 10° SSE visible
